Regional Weather Roundup
Issued by NWS

Home | Current Version | Previous Version | Text Only | Print | Product List | Glossary On
Versions: 1 2 3 4 5 6 7 8 9 10 11 12 13 14 15 16 17 18 19 20 21 22 23 24 25 26 27 28 29 30 31 32 33 34 35 36 37 38 39 40 41 42 43 44 45 46 47 48 49 50
000
ASUS43 KBIS 201002
RWRND

NORTH DAKOTA REGIONAL WEATHER ROUNDUP
NATIONAL WEATHER SERVICE BISMARCK ND
500 AM CDT FRI APR 20 2018

NOTE: "FAIR" INDICATES FEW OR NO CLOUDS BELOW 12,000 FEET WITH NO
SIGNIFICANT WEATHER AND/OR OBSTRUCTIONS TO VISIBILITY.


NDZ001>003-009>011-017-201100-
NORTHWEST NORTH DAKOTA

CITY           SKY/WX    TMP DP  RH WIND       PRES   REMARKS
WILLISTON      FAIR      31  28  89 N6        30.24S
MINOT          CLOUDY    33  31  92 CALM      30.29S FOG
MINOT AFB      CLOUDY    31  30  99 SE6       30.28S FOG
$$

NDZ018>021-031>035-040>046-201100-
SOUTHWEST NORTH DAKOTA

CITY           SKY/WX    TMP DP  RH WIND       PRES   REMARKS
BISMARCK       FAIR      33  24  69 CALM      30.33S
DICKINSON      FAIR      32  27  81 SE10      30.20F
GARRISON         N/A     31  27  85 CALM      30.30S
HETTINGER ARPT FAIR      31  25  78 SE10      30.21F
$$

NDZ004>008-012>016-024-026-027-054-201100-
NORTHEAST NORTH DAKOTA

CITY           SKY/WX    TMP DP  RH WIND       PRES   REMARKS
GRAND FORKS    FAIR      34  29  82 SE6       30.39S
GRND FRKS AFB  FAIR      37  30  75 CALM      30.38S
DEVILS LAKE    FAIR      31  29  92 SE3       30.36S
$$

NDZ022-023-025-028>030-036>039-047>053-201100-
SOUTHEAST NORTH DAKOTA

CITY           SKY/WX    TMP DP  RH WIND       PRES   REMARKS
FARGO          FAIR      36  30  79 SE5       30.41S
JAMESTOWN      CLOUDY    32  28  85 S3        30.36S
$$





USA.gov is the U.S. government's official web portal to all federal, state and local government web resources and services.